星链-32580 (STARLINK-32580)

导读 | 星芒AI

STARLINK-32580 是 SpaceX Starlink 卫星互联网项目中的一颗低轨卫星,属于第二代 Starlink 卫星群。该卫星于2023年发射,旨在为全球用户提供高速、低延迟的互联网服务。它运行在约550公里高的近地轨道,配备先进通信设备和星间激光链路,提升网络覆盖与传输效率。作为 Starlink 计划的重要组成部分,STARLINK-32580 有助于扩大偏远地区的网络接入,支持多种应用场景,包括民用、科研和应急通信等。

基本信息
目录编号:
62075
目录名称:
STARLINK-32580
国际标识:
2024-217U
轨道中心:
EARTH
卫星名称:
星链-32580
卫星全名:
星链-32580 (STARLINK-32580)
卫星状态:
在轨 (已飞行391 天)
发射日期:
2024-11-24 UTC
国别 :
美国 (US)
星等 :
--
轨道信息
数据来源 国际轨道数据
星历时间: 2025-12-20T04:11:18+0800
14小时前
查看轨道信息
半长轴: 6853.314km
偏心率: 0.0001343
轨道倾角: 53.157°
近地点辐角 93.137°
升交点赤经 192.182°
平近点角 266.978°
近地点: 474.256km
远地点: 476.098km
周期: 94.105分钟
每日圈数: 15.302129
详细信息
固有亮度:
5
最大亮度:
2.5
卫星平台:
Starlink V1.0
覆盖范围:
全球
运营商:
太空探索技术公司
运营商所在国:
美国
制造商(研发单位):
太空探索技术公司
制造商所在国:
美国
使用方式:
暂无
卫星简介
Starlink 计划是 SpaceX 推出的全球卫星互联网项目,通过发射低轨道卫星,为全球尤其是偏远地区提供高速、低延迟的互联网服务。自 2019 年起,Starlink 已部署数千颗卫星,旨在缩小全球数字鸿沟,推动互联网普及。该项目还为军事、航空等行业提供通信支持,带来广泛经济效益。
2D轨道图
3D轨道图
轨道高度分析图
轨道倾角分析图
轨道综合分析图
查看轨道综合分析图